Location: Orangeville
(43.9200°N, 80.0943°W)
Time: 08:50:31
(UTC-05:00)

ISS - Visible Passes

Search period start: 28 November 2021 00:00
Search period end: 08 December 2021 00:00
Orbit: 417 x 423 km, 51.6° (Epoch: 28 November)

Date Brightness Start Highest point End Pass type
(mag) Time Alt. Az. Time Alt. Az. Time Alt. Az.
28 Nov -2.0 18:05:24 10° NW 18:08:07 22° N 18:09:08 19° NNE visible
29 Nov -2.1 17:17:58 10° WNW 17:20:45 23° N 17:23:32 10° NE visible
29 Nov -1.5 18:55:24 10° NW 18:56:50 19° NNW 18:56:50 19° NNW visible
30 Nov -2.3 18:08:10 10° NW 18:10:58 23° N 18:11:33 22° NNE visible
01 Dec -2.1 17:20:51 10° NW 17:23:34 22° N 17:26:16 10° NE visible
01 Dec -1.7 18:57:45 10° NW 18:59:18 23° NW 18:59:18 23° NW visible
02 Dec -2.8 18:10:36 10° NW 18:13:41 32° NNE 18:14:08 30° NE visible
03 Dec -2.5 17:23:22 10° NW 17:26:18 26° NNE 17:29:03 11° ENE visible
03 Dec -2.1 19:00:04 10° WNW 19:02:03 32° WNW 19:02:03 32° WNW visible
04 Dec -3.7 18:12:50 10° NW 18:16:12 60° NNE 18:17:05 41° E visible
05 Dec -3.2 17:25:36 10° NW 17:28:52 42° NNE 17:32:06 10° E visible
05 Dec -2.1 19:02:33 10° WNW 19:05:20 32° SW 19:05:20 32° SW visible
06 Dec -3.1 18:15:07 10° WNW 18:18:27 55° SW 18:20:49 17° SE visible
07 Dec -3.7 17:27:47 10° WNW 17:31:11 88° SSW 17:34:35 10° ESE visible
07 Dec -0.6 19:06:00 10° WSW 19:07:32 13° SW 19:09:04 10° SSW visible
